Location: La Gendretière
(47.2970°N, 1.6476°E)
Time: 22:31:43
(UTC+00:00)

Daily predictions for brighter satellites

Satellite Brightness Start Highest point End
(mag) Time Altitude Azimuth Time Altitude Azimuth Time Altitude Azimuth
IRS-1A Rocket 4.4 20:25:30 10° SSE 20:31:08 74° ENE 20:36:41 10° NNW
SL-14 R/B 4.2 20:28:28 10° SSE 20:31:54 30° E 20:35:22 10° NNE
Cosmos 1461 4.1 20:31:58 10° WSW 20:35:38 43° NW 20:39:25 10° NNE
SL-8 R/B 3.9 20:33:14 10° W 20:38:02 77° N 20:42:49 10° E
In-Cosmos 22 4.3 20:34:25 10° S 20:40:03 61° E 20:45:37 10° NNE
Cosmos 2237 Rocket 2.3 20:36:58 10° NNW 20:42:42 89° ENE 20:48:23 10° SSE
Cosmos 1666 Rocket 3.6 20:45:27 10° N 20:49:56 84° ENE 20:54:23 10° S
USA 305 2.8 20:46:16 10° SSW 20:50:01 42° SE 20:53:22 10° ENE
Meteor 2-10 Rocket 3.7 20:44:16 10° N 20:50:02 84° ENE 20:55:34 10° SSE
Cosmos 1953 4.4 20:51:58 10° NE 20:53:35 12° ENE 20:55:11 10° E
Okean-O 3.1 20:51:31 10° S 20:55:50 58° W 21:00:11 10° NNW
NOSS 2-3 (D) 4.5 20:51:04 10° NW 20:56:23 88° SW 21:03:14 12° SE
Cosmos 1633 Rocket 3.0 20:55:43 10° N 21:00:04 87° E 21:04:23 10° S
Meteor 1-22 Rocket 4.4 20:55:00 10° N 21:00:15 56° ENE 21:05:14 12° SSE
Lacrosse 4 Rocket 1.8 20:56:18 10° NNW 21:00:27 54° NE 21:04:06 13° SE
NOSS 3-4 (A) 3.3 20:55:54 10° SW 21:01:16 85° NW 21:07:11 10° NE
NOSS 3-4 (C) 3.2 20:56:01 10° SW 21:01:21 86° NW 21:07:17 10° NE
COSMOS 2428 4.3 20:56:56 10° NW 21:01:47 29° WSW 21:06:36 10° SSW
Cosmos 1818 3.6 20:59:03 10° SSW 21:04:25 64° ESE 21:09:49 10° NE
SAR-Lupe-2 3.6 21:04:36 11° SSE 21:07:59 84° WSW 21:11:37 10° NNW
IKONOS-2 4.4 21:04:38 10° NNE 21:08:48 83° ESE 21:12:57 10° SSW
Cosmos 1455 1.9 21:08:24 10° NNW 21:11:04 54° W 21:13:31 12° S
Cosmos 1328 Rocket 3.8 21:07:57 10° SSW 21:12:18 73° W 21:16:44 10° N
ARIANE 6 FM1 Upper Stage 3.8 21:09:01 10° WNW 21:12:48 35° WSW 21:16:17 12° S
Cosmos 614 Rocket 4.1 21:08:51 10° SSW 21:14:02 83° WNW 21:19:12 10° NNE
Cosmos 2297 Rocket 2.8 21:08:27 10° SW 21:14:03 63° WNW 21:19:43 10° NNE
Ariane Rocket 3.0 21:09:58 13° SSE 21:14:33 75° ENE 21:19:39 10° N
SPOT 3 Rocket 3.5 21:14:36 12° SSE 21:19:18 88° ENE 21:24:29 10° NNW
Cosmos 1470 Rocket 3.5 21:16:16 10° N 21:20:36 88° W 21:24:22 14° S
GP-B 4.1 21:17:29 10° NNE 21:21:21 30° E 21:23:59 17° SE
Cosmos 1758 3.2 21:19:33 10° NNW 21:23:18 76° W 21:26:21 15° S
Cosmos 2084 Rocket 3.4 21:21:58 10° NW 21:26:08 72° NE 21:29:07 18° SE
Meteor 1-13 Rocket 4.3 21:22:34 10° S 21:28:31 85° E 21:34:24 10° NNE
ATLAS CENTAUR R/B 1.3 21:24:51 10° NW 21:28:39 62° SW 21:31:05 20° SSE
Cosmos 1933 Rocket 3.7 21:27:23 10° N 21:31:44 58° ENE 21:34:40 19° SSE
Cosmos 2173 Rocket 4.1 21:25:43 10° N 21:31:55 78° W 21:37:34 12° S
Cosmos 1992 Rocket 4.0 21:29:09 10° NNW 21:34:22 85° WSW 21:38:16 18° SSE
PSLV R/B 3.5 21:33:05 19° S 21:35:21 68° WSW 21:38:38 10° NNW
USA 276 3.4 21:35:35 10° WSW 21:36:45 15° SW 21:36:45 15° SW
SL-16 R/B 2.3 21:31:48 10° NNW 21:37:30 74° ENE 21:41:38 19° SE
Terra 3.6 21:34:28 10° SSW 21:38:25 26° W 21:42:24 10° NW
Cosmos 1864 Rocket 4.5 21:32:44 10° N 21:38:56 84° E 21:43:59 16° S
Cosmos 1515 Rocket 3.6 21:34:51 11° S 21:39:05 87° W 21:43:34 10° N
Meteor 1-23 Rocket 4.2 21:35:30 13° S 21:40:22 67° E 21:45:56 10° NNE
Cosmos 2227 Rocket 2.4 21:36:56 10° SSW 21:42:35 77° WNW 21:48:16 10° NNE
RESURS DK-1 2.2 21:39:42 10° SSW 21:43:43 84° ESE 21:47:44 10° NNE
Cosmos 2233 Rocket 4.2 21:38:51 10° N 21:45:07 61° ENE 21:49:37 20° SSE
COSMOS 2455 3.7 21:40:12 10° NW 21:45:50 43° WSW 21:50:27 15° S
Cosmos 1869 Rocket 3.8 21:41:43 10° N 21:46:02 54° ENE 21:48:34 23° SSE
Meteor 1-21 4.4 21:42:07 16° S 21:46:33 60° E 21:52:12 10° NNE
Cosmos 2263 Rocket 2.2 21:41:34 10° S 21:47:09 62° ESE 21:52:47 10° NNE
Cosmos 2100 Rocket 4.5 21:41:35 10° NNW 21:47:38 58° W 21:53:20 11° S
Okean O Rocket 4.2 21:47:57 10° WSW 21:49:53 13° W 21:51:49 10° WNW
Iridium 51 4.0 21:47:25 10° N 21:51:07 88° E 21:53:07 25° S
Okean 2 4.4 21:50:02 22° SE 21:51:28 29° E 21:54:52 10° NNE
Okean 3 4.4 21:50:57 23° SE 21:52:36 30° E 21:56:12 10° NNE
Cosmos 1725 Rocket 4.1 21:50:43 10° N 21:57:02 79° W 22:01:55 18° S
Cosmos 1437 Rocket 3.0 21:55:31 14° SSW 21:58:24 57° WNW 22:01:57 10° N
Cosmos 1943 4.0 21:53:31 10° NNW 21:58:57 43° NE 22:03:04 17° ESE
ASTEX 1 4.4 21:55:42 10° NNE 22:00:07 31° E 22:02:22 22° SE
Cosmos 2219 3.2 22:02:23 11° SSW 22:07:59 78° ESE 22:13:46 10° NNE
Geosat 3.9 22:04:23 10° NNE 22:09:25 89° ESE 22:14:26 10° SSW
Cosmos 909 Rocket 4.5 22:02:19 10° NW 22:10:28 73° WSW 22:14:56 23° SSE
COBE Rocket 3.9 22:06:35 10° NNE 22:11:42 88° ESE 22:15:12 20° SSW
USA 290 2.0 22:14:13 35° SSW 22:15:24 81° ESE 22:18:37 10° NNE
Meteor 2-16 Rocket 4.4 22:12:55 20° S 22:17:14 80° E 22:23:20 10° NNE
Cosmos 2082 3.7 22:12:58 17° SSW 22:17:28 71° ESE 22:23:11 10° NNE
Cosmos 2292 Rocket 3.2 22:18:12 37° ESE 22:18:29 38° E 22:21:13 10° NNE
USA 305 3.5 22:15:00 10° W 22:18:39 44° NNW 22:21:39 10° NE
SL-8 R/B 3.7 22:15:40 10° WNW 22:20:23 63° SSW 22:22:54 27° SE
Okean 1-7 4.3 22:19:41 22° ESE 22:20:47 25° E 22:24:10 10° NE
ARIANE 5 R/B 3.2 22:20:49 26° SE 22:22:57 47° ENE 22:27:14 10° N
SL-4 R/B 2.2 22:21:17 15° SW 22:24:26 46° SE 22:28:19 10° ENE
Cosmos 2237 Rocket 4.4 22:22:48 10° WNW 22:25:54 15° W 22:29:01 10° SW
Cosmos 1953 2.5 22:25:32 10° NNW 22:29:13 57° W 22:30:44 32° SSW
Cosmos 1140 Rocket 3.4 22:26:48 22° SSW 22:30:07 79° ESE 22:35:16 10° NNE
Cosmos 2061 Rocket 4.3 22:29:22 10° NNW 22:35:34 63° W 22:39:36 22° SSW
Cosmos 1703 3.0 22:34:57 46° SSE 22:35:43 61° E 22:39:10 10° NNE
NOSS 3-1 (C) 4.2 22:29:37 10° NW 22:36:41 74° NE 22:43:29 18° SE
Lacrosse 4 Rocket 3.4 22:35:06 10° WNW 22:38:00 18° WSW 22:39:42 15° SW
Cosmos 1892 2.2 22:43:00 54° ESE 22:43:07 55° E 22:46:04 10° NNE
CZ-4C R/B 3.1 22:48:32 10° N 22:51:46 61° WNW 22:52:42 40° SW
USA 307 4.2 22:54:11 21° E 22:54:11 21° E 22:56:03 10° ENE
Cosmos 407 Rocket 3.4 22:50:55 31° S 22:53:19 71° ESE 22:58:25 10° NNE
Cosmos 2228 Rocket 3.0 22:54:32 37° S 22:56:15 82° E 23:00:42 10° N
Cosmos 1844 Rocket 3.1 22:54:47 32° SSE 22:56:59 47° ESE 23:02:24 10° NE
Cosmos 2251 Rocket 3.8 22:59:04 34° SSE 23:01:08 54° ESE 23:06:21 10° NNE
Cosmos 1844 4.1 22:59:50 32° SSE 23:01:48 45° ESE 23:07:04 10° NE
USA 234 4.3 22:57:48 10° ENE 23:02:56 24° SE 23:03:50 23° SE
USA 59 Rocket 1.3 23:01:52 10° NNW 23:04:59 30° NE 23:08:26 12° ESE
GRACE-FO 1 4.5 23:05:54 53° SSW 23:06:35 71° W 23:10:02 10° N
Cosmos 1707 Rocket 3.6 23:05:01 35° SSW 23:06:44 69° W 23:11:03 10° N
Landsat 5 3.4 23:04:18 10° NNE 23:08:36 82° ESE 23:09:56 43° S
Cosmos 540 Rocket 3.4 23:07:15 10° NNW 23:12:24 86° ENE 23:14:32 36° SSE
Cosmos 1190 Rocket 4.3 23:12:31 35° SSE 23:14:24 54° ESE 23:19:32 10° NNE
ALOS 2 2.5 23:14:27 42° SSE 23:15:54 85° ENE 23:20:19 10° NNW
Cosmos 1733 Rocket 3.9 23:16:22 10° NNW 23:20:29 40° W 23:21:58 30° SW
SL-16 R/B 4.0 23:17:07 10° WNW 23:20:56 19° W 23:23:29 14° SW
Cosmos 468 Rocket 4.0 23:18:03 10° NNW 23:23:14 77° ENE 23:25:26 35° SSE
Cosmos 841 Rocket 4.4 23:19:23 10° N 23:24:22 41° ENE 23:27:33 20° ESE
NOSS 3-1 (A) 4.2 23:17:57 10° NW 23:25:03 74° NE 23:32:25 15° SE
Spot 1 4.5 23:21:51 10° NNE 23:26:47 67° ESE 23:28:37 38° S
ATLAS 2AS CENTAUR R/B 3.4 23:25:05 29° SSE 23:27:43 39° ESE 23:34:04 10° NE
BREEZE-M DEB (TANK) 4.2 23:19:02 10° SSW 23:28:12 31° SSE 23:31:16 10° E
Cosmos 1464 Rocket 4.0 23:21:40 10° NNW 23:27:58 77° W 23:31:00 32° S
Meteor 2-5 Rocket 4.3 23:27:46 31° SSE 23:30:18 49° E 23:36:00 10° NNE
Cosmos 2263 Rocket 4.1 23:26:43 10° WSW 23:31:29 27° NW 23:36:18 10° N
Cosmos 2034 Rocket 4.0 23:28:38 10° N 23:34:54 83° E 23:37:59 33° SSE
Cosmos 1833 Rocket 4.4 23:33:25 10° N 23:38:17 29° NE 23:43:07 10° ESE
SeaSat 1 2.5 23:37:33 30° SE 23:39:57 72° ENE 23:44:52 10° NNW
Cosmos 1908 Rocket 3.5 23:36:26 10° NNW 23:40:48 80° W 23:42:02 47° S
Cosmos 1943 4.1 23:37:45 10° NW 23:42:53 35° WSW 23:44:50 27° SW
Aureole 3 Rocket 3.7 23:40:05 10° NNW 23:42:58 31° W 23:43:25 30° WSW
Cosmos 1763 Rocket 4.3 23:46:06 10° NW 23:50:47 37° WSW 23:52:18 30° SW
Cosmos 1271 Rocket 2.9 23:50:19 47° WSW 23:51:00 56° WNW 23:54:35 10° N
